Regional Weather Roundup
Issued by NWS

Home | Current Version | Previous Version | Graphics & Text | Print | Product List | Glossary Off
Versions: 1 2 3 4 5 6 7 8 9 10 11 12 13 14 15 16 17 18 19 20 21 22 23 24 25 26 27 28 29 30 31 32 33 34 35 36 37 38 39 40 41 42 43 44 45 46 47 48 49 50

000
ASUS43 KLSX 271959
RWRMO

WEATHER SUMMARY FOR MISSOURI
NATIONAL WEATHER SERVICE SPRINGFIELD MO
300 PM CDT WED MAY 27 2015

NOTE: "FAIR" INDICATES FEW OR NO CLOUDS BELOW 12,000 FEET WITH NO
       SIGNIFICANT WEATHER AND/OR OBSTRUCTIONS TO VISIBILITY.
       CURRENT SKY AND/OR WEATHER CONDITIONS ARE NOT AVAILABLE FOR
       CHILLICOTHE AND FARMINGTON.

MOZ001>031-035>038-043-044-053-054-272100-
...NORTHERN AND WESTERN MISSOURI...

CITY           SKY/WX    TMP DP  RH WIND       PRES   REMARKS
KANSAS CTY INT CLOUDY    81  55  40 S7        30.09F
KANSAS C DTWN  SUNNY     83  50  31 VRB3      30.07F
LEE`S SUMMIT   MOSUNNY   81  51  35 CALM      30.10S
ST JOSEPH      SUNNY     82  53  36 S3        30.08F
KIRKSVILLE     SUNNY     80  56  43 N7        30.09S

$$
MOZ066>068-077>081-088>096-101>105-272100-
...SOUTHWEST MISSOURI...

CITY           SKY/WX    TMP DP  RH WIND       PRES   REMARKS
SPRINGFIELD    MOSUNNY   81  62  52 CALM      30.09F
JOPLIN         PTSUNNY   83  68  60 VRB5      30.09F

$$
MOZ032>034-039>042-045>050-055>058-069>072-272100-
...CENTRAL MISSOURI...

CITY           SKY/WX    TMP DP  RH WIND       PRES   REMARKS
COLUMBIA       SUNNY     79  56  45 CALM      30.09S
JEFFERSON CITY SUNNY     81  54  39 W7        30.08S
ROLLA          MOSUNNY   79  61  53 VRB6      30.09S
SEDALIA        MOSUNNY   81  58  45 CALM      30.11F

$$
MOZ051-052-059>065-272100-
...EAST CENTRAL MISSOURI...

CITY           SKY/WX    TMP DP  RH WIND       PRES   REMARKS
ST LOUIS INTL  MOSUNNY   83  61  47 NW12G17   30.07R
SPIRIT OF STL  MOSUNNY   82  60  47 W9        30.06R
ST CHARLES     SUNNY     81  58  45 W12       30.06R

$$
MOZ072>076-082>087-097>100-106>115-272100-
...SOUTH CENTRAL AND SOUTHEAST MISSOURI...

CITY           SKY/WX    TMP DP  RH WIND       PRES   REMARKS
CAPE GIRARDEAU PTSUNNY   78  68  71 S13       30.10S
FARMINGTON     MOSUNNY   81  64  57 SW5       30.13S
POPLAR BLUFF   CLOUDY    78  69  73 SW8       30.10S
WEST PLAINS    MOSUNNY   81  63  54 CALM      30.11F

$$


USA.gov is the U.S. government's official web portal to all federal, state and local government web resources and services.